Fitchburg, MA

9:05 AM EDT on July 26, 2017 (GMT -0400)
Fitchburg Municipal

Weather History for KFIT - December, 2012

Change the Weather History Date:

Sunday, December 30, 2012

  Actual Average (KORH) Record (KORH)
Temperature  
Mean Temperature 24 °F -  
Max Temperature 30 °F 32 °F 56 °F (1984)
Min Temperature 19 °F 17 °F -15 °F (1933)
Degree Days  
Heating Degree Days 40    
Moisture  
Dew Point 15 °F    
Average Humidity 64    
Maximum Humidity 93    
Minimum Humidity 43    
Precipitation  
Precipitation 0.01 in - - ()
Sea Level Pressure  
Sea Level Pressure 29.69 in    
Wind  
Wind Speed 14 mph (NW)    
Max Wind Speed 31 mph    
Max Gust Speed 43 mph    
Visibility 8 miles    
Events Snow    
Averages and records for this station are not official NWS values.
T = Trace of Precipitation, MM = Missing Value Source: NWS Daily Summary

Daily Weather History Graph

Daily Weather History Graph

Search for Another Location

Airport or City:

Trip Planner

Search our weather history database for the weather conditions in past years. The results will help you decide how hot, cold, wet, or windy it might be!

Date:

Astronomy

Dec. 30, 2012 Rise Set
Actual Time 7:16 AM EST 4:23 PM EST
Civil Twilight 6:44 AM EST 4:55 PM EST
Nautical Twilight 6:09 AM EST 5:30 PM EST
Astronomical Twilight 5:35 AM EST 6:04 PM EST
Moon 6:54 PM EST (12/30) 8:21 AM EST (12/30)
Length of Visible Light 10h 10m
Length of Day
9h 06m
Waning Gibbous, 95% of the Moon is Illuminated
Dec 30
Waning Gibbous
Jan 4
Last Quarter
Jan 11
New
Jan 18
First Quarter
Jan 26
Full

Hourly Weather History & Observations

Time (EST) Temp. Windchill Dew Point Humidity Pressure Visibility Wind Dir Wind Speed Gust Speed Precip Events Conditions
12:07 AM 28.4 °F 18.5 °F 26.6 °F 93% 29.46 in 3.0 mi NNW 11.5 mph - 0.00 in Snow Light Snow
12:14 AM 28.4 °F 19.1 °F 24.8 °F 86% 29.47 in 3.0 mi NNW 10.4 mph - 0.00 in Snow Light Snow
12:23 AM 28.4 °F 19.1 °F 24.8 °F 86% 29.47 in 2.0 mi NNW 10.4 mph - 0.01 in Snow Light Snow
12:33 AM 28.4 °F 19.7 °F 24.8 °F 86% 29.47 in 1.8 mi NNW 9.2 mph - 0.01 in Snow Light Snow
12:52 AM 28.9 °F 20.4 °F 25.0 °F 85% 29.48 in 2.5 mi NNW 9.2 mph - 0.01 in Snow Light Snow
1:13 AM 28.4 °F 20.4 °F 26.6 °F 93% 29.47 in 3.0 mi NW 8.1 mph - 0.00 in Snow Light Snow
1:52 AM 28.9 °F 20.4 °F 24.1 °F 82% 29.49 in 8.0 mi WNW 9.2 mph - 0.00 in Snow Light Snow
2:52 AM 28.0 °F 20.8 °F 23.0 °F 81% 29.49 in 10.0 mi NW 6.9 mph - 0.00 in   Overcast
3:52 AM 28.0 °F 17.0 °F 21.9 °F 78% 29.50 in 10.0 mi NW 13.8 mph 23.0 mph N/A   Partly Cloudy
4:52 AM 28.0 °F 16.1 °F 19.9 °F 72% 29.52 in 10.0 mi NW 16.1 mph 27.6 mph N/A   Clear
5:52 AM 27.0 °F 14.3 °F 18.0 °F 69% 29.56 in 10.0 mi WNW 17.3 mph - N/A   Scattered Clouds
6:52 AM 26.1 °F 14.0 °F 16.0 °F 66% 29.60 in 9.0 mi NW 15.0 mph 21.9 mph N/A   Overcast
7:52 AM 25.0 °F 12.2 °F 15.1 °F 66% 29.64 in 10.0 mi NW 16.1 mph 25.3 mph N/A   Overcast
8:52 AM 25.0 °F 13.6 °F 15.1 °F 66% 29.68 in 10.0 mi NW 12.7 mph 21.9 mph N/A   Overcast
9:52 AM 25.0 °F 12.6 °F 14.0 °F 63% 29.71 in 10.0 mi NW 15.0 mph 23.0 mph N/A   Overcast
10:52 AM 26.1 °F 12.3 °F 15.1 °F 63% 29.71 in 5.0 mi WNW 19.6 mph 27.6 mph N/A   Haze
11:52 AM 27.0 °F 13.5 °F 15.1 °F 61% 29.70 in 9.0 mi WNW 19.6 mph 27.6 mph 0.00 in   Clear
12:52 PM 28.0 °F 16.1 °F 14.0 °F 56% 29.70 in 10.0 mi WNW 16.1 mph 29.9 mph N/A   Clear
1:52 PM 30.0 °F 18.7 °F 10.9 °F 45% 29.72 in 8.0 mi NW 16.1 mph 35.7 mph 0.00 in   Clear
2:52 PM 28.0 °F 12.0 °F 10.0 °F 47% 29.75 in 1.8 mi WNW 31.1 mph 41.4 mph 0.00 in   Clear
3:01 PM 28.4 °F 13.3 °F 8.6 °F 43% 29.74 in 2.5 mi NW 27.6 mph 42.6 mph 0.00 in   Clear
3:11 PM 28.4 °F 14.4 °F 8.6 °F 43% 29.75 in 4.0 mi WNW 23.0 mph 35.7 mph 0.00 in   Clear
3:52 PM 28.0 °F 14.3 °F 8.1 °F 43% 29.79 in 9.0 mi NW 21.9 mph 28.8 mph 0.00 in   Clear
4:52 PM 27.0 °F 13.9 °F 8.1 °F 45% 29.83 in 10.0 mi NW 18.4 mph 26.5 mph 0.00 in   Clear
5:52 PM 25.0 °F 15.5 °F 8.1 °F 49% 29.87 in 10.0 mi NW 9.2 mph 19.6 mph N/A   Clear
6:52 PM 24.1 °F 12.0 °F 6.1 °F 46% 29.92 in 10.0 mi WNW 13.8 mph 25.3 mph N/A   Clear
7:52 PM 23.0 °F 10.6 °F 6.1 °F 48% 29.96 in 10.0 mi NW 13.8 mph 21.9 mph N/A   Clear
8:52 PM 21.0 °F 7.1 °F 6.1 °F 53% 29.97 in 10.0 mi WNW 16.1 mph 23.0 mph N/A   Clear
9:52 PM 19.9 °F 6.7 °F 5.0 °F 52% 29.98 in 10.0 mi WNW 13.8 mph 20.7 mph N/A   Clear
10:52 PM 19.9 °F 4.8 °F 5.0 °F 52% 30.00 in 10.0 mi WNW 18.4 mph 28.8 mph N/A   Clear
11:52 PM 19.9 °F 7.3 °F 6.1 °F 55% 30.00 in 10.0 mi NW 12.7 mph 25.3 mph N/A   Clear